Terug naar catalogus

IRIDIUM 33 DEB

ActiefPO
NORAD 33886·DEBRIS·🇺🇸 United States

Gelanceerd Sep 14, 1997 vanaf Baikonur Cosmodrome

Loading…

Volgende Passages (komende 24 uur)

TLE

VersSource: Space-Track

Epoch: Sep 14, 2026, 14:09 UTC

1 33886U 97051BF  26257.58973560  .00000300  00000-0  95593-4 0  9993
2 33886  86.3833 311.1230 0015983  68.3406  96.4053 14.36318717920116

Volg IRIDIUM 33 DEB in realtime met AllMySat

Download on the App Store